Latest Coastal Weather Observations for Mackay

IDQ60701

Issued at 9:42 pm EST Friday 26 April 2019 (issued every 10 minutes, with the page automatically refreshed every 10 minutes)

About coastal observations | Map of coastal stations | Coastal observations for QLD | Marine services | Other Formats
Station Details ID: 033119 Name: MACKAY M.O Lat: -21.12 Lon: 149.22 Height: 30.26 m
Data from the previous 72 hours. | See also: Recent months at Mackay
Date/Time
EST
Wind Sea
Height
m
Swell Vis
km
Cloud Weather Temp
°C
Press
hPa
Rain since
9am
mm
Dir  Spd
kts
Gust
kts
Height
m
Period
s
Dir
26/09:30pm SSE 7 11 - - - - - Partly cloudy - 24.0 1015.1 0.2
26/09:00pm SSE 7 10 - - - - - Mostly clear - 24.0 1015.0 0.2
26/08:30pm SSE 7 11 - - - - - Partly cloudy - 24.1 1014.7 0.2
26/08:02pm SSE 7 10 - - - - - Partly cloudy - 24.1 1014.4 0.2
26/08:00pm SSE 7 10 - - - - - Partly cloudy - 24.1 1014.4 0.2
26/07:43pm SSE 7 11 - - - - - Partly cloudy - 24.2 1014.2 0.2
26/07:30pm SSE 7 12 - - - - - Partly cloudy - 24.1 1014.2 0.2
26/07:00pm SSE 6 9 - - - - - Partly cloudy - 24.0 1013.8 0.2
26/06:30pm SE 6 10 - - - - - Partly cloudy - 24.1 1013.4 0.2
26/06:00pm SSE 7 11 - - - - - Mostly clear - 24.1 1013.0 0.2
26/05:30pm SE 6 10 - - - - - Partly cloudy - 24.3 1012.8 0.2
26/05:00pm SE 7 11 - - - - - - - 24.7 1012.4 0.2
26/04:30pm SE 8 12 - - - - - - - 25.1 1012.2 0.2
26/04:00pm SE 9 13 - - - - - Partly cloudy - 25.3 1011.9 0.2
26/03:30pm SE 9 15 - - - - - - - 25.8 1011.7 0.2
26/03:00pm SE 8 12 - - - - - - - 25.8 1011.8 0.2
26/02:30pm SE 8 12 - - - - - - - 26.1 1012.0 0.2
26/02:00pm SSE 8 13 - - - - - - - 26.3 1012.2 0.2
26/01:30pm SSE 9 15 - - - - - - - 26.6 1012.4 0.2
26/01:00pm SSE 9 15 - - - - - - - 26.1 1012.6 0.2
26/12:30pm SSE 10 17 - - - - - Partly cloudy - 26.1 1013.0 0.2
26/12:00pm SSE 9 16 - - - - - Partly cloudy - 25.4 1013.4 0.2
26/11:30am SSE 11 16 - - - - - Partly cloudy - 25.6 1013.9 0.2
26/11:00am SSE 10 15 - - - - - Partly cloudy - 26.0 1014.1 0.2
26/10:30am SSE 11 17 - - - - - Partly cloudy - 25.8 1014.4 0.2
26/10:00am S 11 17 - - - - - Partly cloudy - 25.6 1014.4 0.2
26/09:58am S 11 17 - - - - - Partly cloudy - 25.3 1014.4 0.2
26/09:30am S 10 16 - - - - - Cloudy - 25.2 1014.4 0.0
26/09:00am S 10 15 - - - - - Mostly cloudy - 24.2 1014.6 0.0
26/08:30am S 11 16 - - - - - Partly cloudy - 23.9 1014.4 0.0
26/08:00am S 9 13 - - - - - Cloudy - 23.3 1014.1 0.0
26/07:30am S 9 13 - - - - - Cloudy - 22.7 1014.0 0.0
26/07:00am S 8 12 - - - - - Cloudy - 22.4 1013.9 0.0
26/06:30am S 8 11 - - - - - Partly cloudy - 22.2 1013.6 0.0
26/06:00am S 9 11 - - - - - Cloudy - 22.4 1013.5 0.0
26/05:30am S 9 13 - - - - - Cloudy - 22.4 1013.2 0.0
26/05:00am S 9 14 - - - - - Cloudy - 22.4 1013.2 0.0
26/04:30am S 9 13 - - - - - Cloudy - 22.3 1013.0 0.0
26/04:00am S 9 14 - - - - - Cloudy - 22.4 1012.8 0.0
26/03:30am S 8 12 - - - - - Partly cloudy - 22.3 1012.8 0.0
26/03:14am S 7 11 - - - - - Partly cloudy - 22.3 1012.7 0.0
26/03:00am S 7 10 - - - - - Cloudy - 22.3 1012.7 0.0
26/02:30am S 8 12 - - - - - Partly cloudy - 22.4 1012.9 0.0
26/02:00am S 8 11 - - - - - Partly cloudy - 22.6 1013.1 0.0
26/01:30am S 9 13 - - - - - Partly cloudy - 22.6 1013.3 0.0
26/01:00am S 9 12 - - - - - Cloudy - 22.8 1013.7 0.0
26/12:30am S 8 12 - - - - - Partly cloudy - 22.8 1013.9 0.0
26/12:00am S 8 13 - - - - - Cloudy - 22.7 1014.2 0.0
 
Date/Time
EST
Wind Sea
Height
m
Swell Vis
km
Cloud Weather Temp
°C
Press
hPa
Rain since
9am
mm
Dir  Spd
kts
Gust
kts
Height
m
Period
s
Dir
25/11:30pm S 9 14 - - - - - Partly cloudy - 22.8 1014.4 0.0
25/11:18pm S 9 13 - - - - - Partly cloudy - 22.8 1014.6 0.0
25/11:17pm S 9 13 - - - - - Partly cloudy - 22.8 1014.6 0.0
25/11:07pm S 9 14 - - - - - Partly cloudy - 22.8 1014.5 0.0
25/11:00pm S 9 14 - - - - - Partly cloudy - 22.7 1014.6 0.0
25/10:48pm S 8 12 - - - - - Partly cloudy - 22.7 1014.6 0.0
25/10:30pm S 10 14 - - - - - Partly cloudy - 22.7 1014.5 0.0
25/10:00pm S 10 15 - - - - - Partly cloudy - 23.3 1014.5 0.0
25/09:30pm S 9 13 - - - - - Partly cloudy - 23.8 1014.3 0.0
25/09:26pm S 9 14 - - - - - Partly cloudy - 23.8 1014.3 0.0
25/09:00pm SSE 10 15 - - - - - Mostly cloudy - 23.9 1014.3 0.0
25/08:30pm SSE 10 14 - - - - - Partly cloudy - 24.1 1014.1 0.0
25/08:00pm SSE 9 14 - - - - - Partly cloudy - 24.2 1013.9 0.0
25/07:54pm SSE 9 14 - - - - - Partly cloudy - 24.2 1013.8 0.0
25/07:30pm SSE 9 15 - - - - - Partly cloudy - 24.4 1013.5 0.0
25/07:19pm SSE 9 14 - - - - - Partly cloudy - 24.4 1013.3 0.0
25/07:00pm SSE 8 13 - - - - - Partly cloudy - 24.0 1013.1 0.0
25/06:30pm SSE 8 11 - - - - - Partly cloudy - 24.3 1012.8 0.0
25/06:18pm SSE 6 10 - - - - - Partly cloudy - 24.3 1012.8 0.0
25/06:00pm SSE 7 11 - - - - - Cloudy - 24.6 1012.7 0.0
25/05:54pm SE 6 11 - - - - - Partly cloudy - 24.7 1012.6 0.0
25/05:52pm SE 6 11 - - - - - Partly cloudy - 24.7 1012.5 0.0
25/05:41pm SE 5 8 - - - - - Partly cloudy - 24.6 1012.4 0.0
25/05:30pm SSE 5 9 - - - - - Partly cloudy - 24.5 1012.4 0.0
25/05:00pm SSE 7 11 - - - - - Partly cloudy - 24.9 1012.2 0.0
25/04:30pm SSE 7 12 - - - - - - - 25.3 1012.0 0.0
25/04:00pm SSE 8 13 - - - - - Partly cloudy - 25.8 1011.7 0.0
25/03:30pm SE 6 11 - - - - - Partly cloudy - 26.4 1011.8 0.0
25/03:00pm SE 7 11 - - - - - - - 26.2 1011.6 0.0
25/02:30pm SE 7 11 - - - - - - - 26.3 1011.6 0.0
25/02:00pm SE 7 11 - - - - - - - 26.3 1011.9 0.0
25/01:30pm SE 8 14 - - - - - Partly cloudy - 26.3 1012.0 0.0
25/01:00pm SSE 9 13 - - - - - Partly cloudy - 26.5 1012.6 0.0
25/12:33pm SSE 9 14 - - - - - Partly cloudy - 26.5 1012.9 0.0
25/12:30pm SSE 9 15 - - - - - Partly cloudy - 26.7 1012.9 0.0
25/12:00pm SSE 9 15 - - - - - Mostly cloudy - 26.7 1013.4 0.0
25/11:30am SSE 9 16 - - - - - Partly cloudy - 26.3 1013.9 0.0
25/11:00am SE 9 14 - - - - - Partly cloudy - 26.6 1014.3 0.0
25/10:30am SE 7 13 - - - - - Partly cloudy - 26.0 1014.6 0.0
25/10:00am SSE 7 11 - - - - - Partly cloudy - 25.9 1014.7 0.0
25/09:30am SSE 6 10 - - - - - Partly cloudy - 25.4 1014.6 0.0
25/09:00am SSE 8 13 - - - - - Mostly cloudy - 24.8 1014.4 89.8
25/08:30am SSE 9 14 - - - - - Cloudy - 24.8 1014.1 89.8
25/08:00am SSE 9 14 - - - - - Partly cloudy - 23.9 1013.8 89.8
25/07:30am SSE 10 16 - - - - - Partly cloudy - 23.6 1013.7 89.8
25/07:00am SSE 8 13 - - - - - Cloudy - 23.3 1013.6 89.8
25/06:30am SSE 7 10 - - - - - Partly cloudy - 23.3 1013.5 89.8
25/06:00am SSE 9 14 - - - - - Cloudy - 23.2 1012.9 89.8
25/05:30am SSE 8 13 - - - - - Partly cloudy - 23.1 1012.6 89.8
25/05:00am SE 8 13 - - - - - Partly cloudy - 23.1 1012.5 89.8
25/04:30am SE 8 15 - - - - - Cloudy - 23.3 1012.3 89.8
25/04:00am SE 7 11 - - - - - Partly cloudy - 23.1 1012.3 89.8
25/03:30am SE 10 16 - - - - - Partly cloudy - 23.0 1012.2 89.8
25/03:00am SSE 9 15 - - - - - Cloudy Recent precip. 23.0 1012.0 89.8
25/02:30am SE 11 17 - - - - - Partly cloudy - 23.3 1012.2 89.8
25/02:29am SE 11 17 - - - - - Partly cloudy - 23.3 1012.2 89.8
25/02:01am SE 11 18 - - - - - Partly cloudy - 23.0 1012.3 89.6
25/02:00am SE 11 18 - - - - - Partly cloudy - 23.0 1012.3 89.6
25/01:30am SE 14 24 - - - - - Partly cloudy - 23.2 1012.4 89.2
25/01:05am SE 15 25 - - - - - Cloudy - 23.3 1012.4 87.0
25/01:00am SE 15 23 - - - - - Cloudy - 23.2 1012.2 86.6
25/12:30am SSE 14 23 - - - - - Partly cloudy - 22.8 1013.1 76.6
25/12:00am SSE 13 19 - - - - - Cloudy Rain 22.6 1013.7 69.4
 
Date/Time
EST
Wind Sea
Height
m
Swell Vis
km
Cloud Weather Temp
°C
Press
hPa
Rain since
9am
mm
Dir  Spd
kts
Gust
kts
Height
m
Period
s
Dir
24/11:45pm SSE 13 22 - - - - - Partly cloudy - 22.6 1013.8 68.8
24/11:36pm SSE 13 21 - - - - - Partly cloudy - 22.6 1014.0 68.8
24/11:30pm SSE 13 21 - - - - - Partly cloudy - 22.5 1014.0 68.8
24/11:00pm SE 13 22 - - - - - Partly cloudy - 22.8 1014.2 68.2
24/10:30pm SE 12 19 - - - - - Partly cloudy - 22.8 1014.5 67.4
24/10:08pm SE 12 17 - - - - - Partly cloudy - 23.1 1014.6 67.4
24/10:00pm SE 11 18 - - - - - Partly cloudy - 23.0 1014.6 67.2
24/09:30pm ESE 13 20 - - - - - Partly cloudy - 23.0 1014.5 65.2
24/09:25pm ESE 13 20 - - - - - Partly cloudy - 23.0 1014.5 64.0
24/09:00pm ESE 14 23 - - - - - Cloudy Rain 23.6 1014.3 61.2
24/08:30pm ESE 14 23 - - - - - Partly cloudy - 23.8 1014.5 60.8
24/08:10pm ESE 15 27 - - - - - Partly cloudy - 23.8 1014.1 60.8
24/08:00pm ESE 14 23 - - - - - Partly cloudy - 23.9 1013.9 60.8
24/07:50pm E 16 25 - - - - - Partly cloudy - 23.7 1013.9 60.8
24/07:30pm ESE 8 18 - - - - - Partly cloudy - 23.9 1013.5 60.8
24/07:00pm SSE 11 16 - - - - - Partly cloudy - 23.6 1013.5 49.0
24/06:30pm SE 11 17 - - - - - Partly cloudy - 23.7 1013.3 48.8
24/06:00pm SE 10 16 - - - - - Cloudy Recent precip. 23.5 1013.1 48.4
24/05:30pm SSE 12 18 - - - - - Partly cloudy - 23.6 1012.9 48.2
24/05:04pm SSE 12 19 - - - - - Partly cloudy - 23.5 1012.8 46.6
24/05:00pm SE 12 19 - - - - - Partly cloudy - 23.5 1012.9 46.2
24/04:46pm SE 12 17 - - - - - Partly cloudy - 23.6 1012.8 43.6
24/04:30pm SE 12 19 - - - - - Partly cloudy - 23.7 1012.8 41.8
24/04:00pm SE 10 17 - - - - - Partly cloudy - 23.8 1012.7 39.2
24/03:55pm SE 10 17 - - - - - Partly cloudy - 23.9 1012.7 39.2
24/03:54pm SE 10 17 - - - - - Partly cloudy - 23.9 1012.7 39.2
24/03:30pm SE 11 21 - - - - - Partly cloudy - 23.6 1012.6 39.0
24/03:03pm SE 11 21 - - - - - Partly cloudy - 23.9 1012.6 38.8
24/03:00pm SE 11 21 - - - - - Cloudy - 24.0 1012.5 38.8
24/02:30pm ESE 11 18 - - - - - Partly cloudy - 23.8 1012.7 38.8
24/02:00pm SE 11 19 - - - - - Partly cloudy - 23.9 1012.8 38.8
24/01:54pm SE 13 20 - - - - - Partly cloudy - 23.7 1012.9 38.8
24/01:32pm SE 11 16 - - - - - Partly cloudy - 23.4 1013.3 36.6
24/01:30pm SE 11 16 - - - - - Partly cloudy - 23.5 1013.3 36.4
24/01:21pm ESE 11 17 - - - - - Partly cloudy - 23.5 1013.4 35.4
24/01:13pm SE 11 17 - - - - - Partly cloudy - 23.5 1013.5 33.8
24/01:00pm SE 11 16 - - - - - Partly cloudy - 24.4 1013.6 32.8
24/12:30pm SE 10 18 - - - - - Partly cloudy - 24.6 1014.1 32.0
24/12:13pm SSE 10 16 - - - - - Partly cloudy - 24.8 1014.2 32.0
24/12:00pm SE 9 15 - - - - - Cloudy Recent precip. 24.6 1014.4 32.0
24/11:48am SE 9 15 - - - - - Partly cloudy - 24.1 1014.5 32.0
24/11:30am SE 9 16 - - - - - Partly cloudy - 24.1 1014.8 32.0
24/11:00am SE 5 9 - - - - - Partly cloudy - 23.8 1015.2 31.8
24/10:30am SSE 9 13 - - - - - Partly cloudy - 23.9 1015.8 23.6
24/10:00am E 6 11 - - - - - Partly cloudy - 23.5 1016.2 5.8
24/09:51am ESE 8 14 - - - - - Partly cloudy - 23.6 1016.2 1.2
24/09:30am SSE 10 19 - - - - - Partly cloudy - 23.8 1015.7 0.0
24/09:00am SSE 10 17 - - - - - Cloudy Recent precip. 23.8 1015.5 18.0
24/08:30am ESE 9 17 - - - - - Partly cloudy - 23.2 1015.5 18.0
24/08:00am SSE 9 16 - - - - - Partly cloudy - 23.3 1015.5 16.6
24/07:30am SE 8 14 - - - - - Partly cloudy - 23.8 1015.2 16.2
24/07:00am SSE 9 13 - - - - - Partly cloudy - 23.0 1015.1 16.0
24/06:30am SE 7 11 - - - - - Partly cloudy - 23.0 1015.0 14.2
24/06:18am S 8 11 - - - - - Partly cloudy - 23.0 1014.5 12.6
24/06:00am SSE 9 13 - - - - - Cloudy Recent precip. 22.9 1014.5 12.6
24/05:58am SSE 9 13 - - - - - Partly cloudy - 22.9 1014.5 12.6
24/05:30am SSE 10 15 - - - - - Partly cloudy - 23.1 1014.2 12.4
24/05:00am SSE 8 11 - - - - - Partly cloudy - 23.5 1014.0 12.2
24/04:30am SSE 8 12 - - - - - Partly cloudy - 23.8 1013.7 7.4
24/04:00am SE 9 16 - - - - - Partly cloudy - 24.2 1013.6 7.2
24/03:30am SSE 8 13 - - - - - Partly cloudy - 24.2 1013.7 6.8
24/03:00am SE 10 16 - - - - - Cloudy Recent precip. 24.0 1014.0 6.8
24/02:30am SE 8 13 - - - - - Partly cloudy - 24.0 1014.2 6.8
24/02:00am SE 8 14 - - - - - Partly cloudy - 24.1 1014.4 6.6
24/01:30am SSE 8 13 - - - - - Partly cloudy - 24.7 1014.6 5.2
24/01:00am SSE 10 14 - - - - - Partly cloudy - 24.4 1014.8 5.2
24/12:30am SSE 10 16 - - - - - Partly cloudy - 24.5 1015.2 5.2
24/12:00am SE 9 14 - - - - - Mostly cloudy - 24.7 1015.5 5.2
 
Date/Time
EST
Wind Sea
Height
m
Swell Vis
km
Cloud Weather Temp
°C
Press
hPa
Rain since
9am
mm
Dir  Spd
kts
Gust
kts
Height
m
Period
s
Dir
23/11:30pm SE 9 14 - - - - - Partly cloudy - 24.4 1015.8 5.2
23/11:00pm SSE 10 17 - - - - - Partly cloudy - 24.3 1016.0 5.2
23/10:30pm SE 9 15 - - - - - - - 24.6 1016.2 5.2
23/10:00pm SSE 10 17 - - - - - Partly cloudy - 24.6 1016.3 5.2

Other formats

Comma delimited format used in spreadsheet applications
http://www.bom.gov.au/fwo/IDQ60701/IDQ60701.94367.axf

JavaScript Object Notation format (JSON) in row-major order
http://www.bom.gov.au/fwo/IDQ60701/IDQ60701.94367.json

Data quality

Most of these data are generated automatically and are frequently updated. Quality checks on data are not normally performed. It is possible for incorrect values to appear. Refer to information at About Latest Weather Observations and please check the disclaimer before using these data.